Time,TemperatureF,DewpointF,PressureIn,WindDirection,WindDirectionDegrees,WindSpeedMPH,WindSpeedGustMPH,Humidity,HourlyPrecipIn,Conditions,Clouds,dailyrainin,SoftwareType,DateUTC
2013-03-14 00:01:00,59.4,46.8,30.03,NE,49,0.0,0.0,63,0.00,,---,0.00,VWS V14.01,2013-03-14 07:01:00,
2013-03-14 00:06:00,59.0,47.3,30.03,NE,49,0.0,0.0,65,0.00,,---,0.00,VWS V14.01,2013-03-14 07:06:00,
2013-03-14 00:11:00,58.8,47.5,30.03,NE,48,0.0,0.0,66,0.00,,---,0.00,VWS V14.01,2013-03-14 07:11:00,
2013-03-14 00:16:00,58.4,47.1,30.03,NE,49,0.0,0.0,66,0.00,,---,0.00,VWS V14.01,2013-03-14 07:16:00,
2013-03-14 00:21:00,58.2,46.9,30.03,NE,49,0.0,0.0,66,0.00,,---,0.00,VWS V14.01,2013-03-14 07:21:00,
2013-03-14 00:26:00,57.8,46.5,30.03,NE,49,0.0,0.0,66,0.00,,---,0.00,VWS V14.01,2013-03-14 07:26:00,
2013-03-14 00:31:00,57.4,45.8,30.03,NE,49,0.0,0.0,65,0.00,,---,0.00,VWS V14.01,2013-03-14 07:31:00,
2013-03-14 00:36:00,57.1,45.5,30.03,NE,49,0.0,0.0,65,0.00,,---,0.00,VWS V14.01,2013-03-14 07:36:00,
2013-03-14 00:42:00,56.9,45.3,30.02,NE,49,0.0,0.0,65,0.00,,---,0.00,VWS V14.01,2013-03-14 07:42:00,
2013-03-14 00:47:00,56.7,45.1,30.03,NE,49,0.0,0.0,65,0.00,,---,0.00,VWS V14.01,2013-03-14 07:47:00,
2013-03-14 00:52:00,56.6,45.0,30.02,NE,49,0.0,0.0,65,0.00,,---,0.00,VWS V14.01,2013-03-14 07:52:00,
2013-03-14 00:57:00,56.7,45.5,30.03,NE,49,0.0,0.0,66,0.00,,---,0.00,VWS V14.01,2013-03-14 07:57:00,
2013-03-14 01:02:00,56.8,45.6,30.03,NE,49,0.0,0.0,66,0.00,,---,0.00,VWS V14.01,2013-03-14 08:02:00,
2013-03-14 01:07:00,56.7,45.1,30.03,NE,49,0.0,0.0,65,0.00,,---,0.00,VWS V14.01,2013-03-14 08:07:00,
2013-03-14 01:12:00,56.7,44.7,30.03,NE,48,0.0,2.0,64,0.00,,---,0.00,VWS V14.01,2013-03-14 08:12:00,
2013-03-14 01:17:00,56.9,44.9,30.03,NE,49,0.0,0.0,64,0.00,,---,0.00,VWS V14.01,2013-03-14 08:17:00,
2013-03-14 01:22:00,57.1,44.6,30.03,NE,49,0.0,2.0,63,0.00,,---,0.00,VWS V14.01,2013-03-14 08:22:00,
2013-03-14 01:27:00,57.3,44.4,30.02,NE,49,0.0,2.0,62,0.00,,---,0.00,VWS V14.01,2013-03-14 08:27:00,
2013-03-14 01:32:00,57.4,44.1,30.03,NE,49,0.0,0.0,61,0.00,,---,0.00,VWS V14.01,2013-03-14 08:32:00,
2013-03-14 01:37:00,57.6,44.3,30.02,NE,49,0.0,0.0,61,0.00,,---,0.00,VWS V14.01,2013-03-14 08:37:00,
2013-03-14 01:42:00,57.7,43.9,30.03,NE,49,0.0,0.0,60,0.00,,---,0.00,VWS V14.01,2013-03-14 08:42:00,
2013-03-14 01:47:00,57.6,43.4,30.03,NE,49,0.0,0.0,59,0.00,,---,0.00,VWS V14.01,2013-03-14 08:47:00,
2013-03-14 01:52:00,57.5,43.7,30.03,NE,49,0.0,0.0,60,0.00,,---,0.00,VWS V14.01,2013-03-14 08:52:00,
2013-03-14 01:57:00,57.5,43.7,30.03,NE,49,0.0,0.0,60,0.00,,---,0.00,VWS V14.01,2013-03-14 08:57:00,
2013-03-14 02:02:00,57.6,43.8,30.03,NE,49,0.0,0.0,60,0.00,,---,0.00,VWS V14.01,2013-03-14 09:02:00,
2013-03-14 02:07:00,57.6,43.8,30.03,NE,49,0.0,0.0,60,0.00,,---,0.00,VWS V14.01,2013-03-14 09:07:00,
2013-03-14 02:12:00,57.5,43.7,30.03,NE,49,0.0,0.0,60,0.00,,---,0.00,VWS V14.01,2013-03-14 09:12:00,
2013-03-14 02:17:00,57.4,44.1,30.03,NE,48,0.0,3.0,61,0.00,,---,0.00,VWS V14.01,2013-03-14 09:17:00,
2013-03-14 02:22:00,57.3,44.4,30.03,NE,49,0.0,3.0,62,0.00,,---,0.00,VWS V14.01,2013-03-14 09:22:00,
2013-03-14 02:27:00,57.2,44.7,30.03,NE,49,0.0,3.0,63,0.00,,---,0.00,VWS V14.01,2013-03-14 09:27:00,
2013-03-14 02:32:00,57.1,44.6,30.03,NE,49,0.0,0.0,63,0.00,,---,0.00,VWS V14.01,2013-03-14 09:32:00,
2013-03-14 02:37:00,56.9,44.5,30.03,NE,49,1.0,3.0,63,0.00,,---,0.00,VWS V14.01,2013-03-14 09:37:00,
2013-03-14 02:42:00,56.8,44.8,30.03,NE,49,1.0,3.0,64,0.00,,---,0.00,VWS V14.01,2013-03-14 09:42:00,
2013-03-14 02:47:00,56.6,44.6,30.03,NE,49,0.0,0.0,64,0.00,,---,0.00,VWS V14.01,2013-03-14 09:47:00,
2013-03-14 02:52:00,56.4,44.0,30.02,NE,49,1.0,3.0,63,0.00,,---,0.00,VWS V14.01,2013-03-14 09:52:00,
2013-03-14 02:57:00,56.3,43.9,30.02,NE,49,0.0,3.0,63,0.00,,---,0.00,VWS V14.01,2013-03-14 09:57:00,
2013-03-14 03:02:00,56.1,43.7,30.02,NE,49,0.0,0.0,63,0.00,,---,0.00,VWS V14.01,2013-03-14 10:02:00,
2013-03-14 03:07:00,55.9,43.1,30.02,NE,49,4.0,4.0,62,0.00,,---,0.00,VWS V14.01,2013-03-14 10:07:00,
2013-03-14 03:12:00,55.8,42.1,30.02,NE,50,0.0,5.0,60,0.00,,---,0.00,VWS V14.01,2013-03-14 10:12:00,
2013-03-14 03:17:00,55.8,41.7,30.02,NE,49,0.0,0.0,59,0.00,,---,0.00,VWS V14.01,2013-03-14 10:17:00,
2013-03-14 03:22:00,55.7,41.2,30.01,NE,50,0.0,0.0,58,0.00,,---,0.00,VWS V14.01,2013-03-14 10:22:00,
2013-03-14 03:27:00,55.8,41.3,30.01,NE,49,0.0,0.0,58,0.00,,---,0.00,VWS V14.01,2013-03-14 10:27:00,
2013-03-14 03:32:00,55.8,41.3,30.01,NE,50,0.0,0.0,58,0.00,,---,0.00,VWS V14.01,2013-03-14 10:32:00,
2013-03-14 03:37:00,56.0,41.5,30.01,NE,49,0.0,0.0,58,0.00,,---,0.00,VWS V14.01,2013-03-14 10:37:00,
2013-03-14 03:42:00,56.3,40.8,30.01,NE,49,0.0,0.0,56,0.00,,---,0.00,VWS V14.01,2013-03-14 10:42:00,
2013-03-14 03:47:00,56.7,42.1,30.01,NE,49,0.0,0.0,58,0.00,,---,0.00,VWS V14.01,2013-03-14 10:47:00,
2013-03-14 03:52:00,56.8,41.8,30.01,NE,49,0.0,0.0,57,0.00,,---,0.00,VWS V14.01,2013-03-14 10:52:00,
2013-03-14 03:57:00,56.9,42.3,30.01,NE,49,0.0,0.0,58,0.00,,---,0.00,VWS V14.01,2013-03-14 10:57:00,
2013-03-14 04:02:00,56.7,42.5,30.01,NE,49,2.0,3.0,59,0.00,,---,0.00,VWS V14.01,2013-03-14 11:02:00,
2013-03-14 04:07:00,56.6,42.9,30.01,NE,49,2.0,3.0,60,0.00,,---,0.00,VWS V14.01,2013-03-14 11:07:00,
2013-03-14 04:12:00,56.5,42.8,30.01,NE,49,2.0,3.0,60,0.00,,---,0.00,VWS V14.01,2013-03-14 11:12:00,
2013-03-14 04:17:00,56.3,42.2,30.01,NE,49,0.0,4.0,59,0.00,,---,0.00,VWS V14.01,2013-03-14 11:17:00,
2013-03-14 04:22:00,56.1,42.0,30.01,NE,50,0.0,4.0,59,0.00,,---,0.00,VWS V14.01,2013-03-14 11:22:00,
2013-03-14 04:27:00,56.0,41.9,30.01,NE,49,2.0,4.0,59,0.00,,---,0.00,VWS V14.01,2013-03-14 11:27:00,
2013-03-14 04:32:00,56.1,41.5,30.01,NE,49,0.0,0.0,58,0.00,,---,0.00,VWS V14.01,2013-03-14 11:32:00,
2013-03-14 04:37:00,56.1,41.5,30.01,NE,49,3.0,3.0,58,0.00,,---,0.00,VWS V14.01,2013-03-14 11:37:00,
2013-03-14 04:42:00,56.2,41.6,30.01,NE,50,3.0,4.0,58,0.00,,---,0.00,VWS V14.01,2013-03-14 11:42:00,
2013-03-14 04:47:00,56.1,41.5,30.01,NE,49,1.0,3.0,58,0.00,,---,0.00,VWS V14.01,2013-03-14 11:47:00,
2013-03-14 04:52:00,56.0,41.5,30.01,NE,49,3.0,3.0,58,0.00,,---,0.00,VWS V14.01,2013-03-14 11:52:00,
2013-03-14 04:57:00,55.9,41.8,30.01,NE,49,2.0,3.0,59,0.00,,---,0.00,VWS V14.01,2013-03-14 11:57:00,
2013-03-14 05:02:00,56.0,41.5,30.01,NE,50,2.0,3.0,58,0.00,,---,0.00,VWS V14.01,2013-03-14 12:02:00,
2013-03-14 05:07:00,56.1,41.1,30.01,NE,49,3.0,4.0,57,0.00,,---,0.00,VWS V14.01,2013-03-14 12:07:00,
2013-03-14 05:12:00,56.2,41.2,30.01,NE,49,3.0,4.0,57,0.00,,---,0.00,VWS V14.01,2013-03-14 12:12:00,
2013-03-14 05:17:00,56.2,40.7,30.01,NE,49,2.0,3.0,56,0.00,,---,0.00,VWS V14.01,2013-03-14 12:17:00,
2013-03-14 05:22:00,56.3,40.4,30.01,NE,49,2.0,3.0,55,0.00,,---,0.00,VWS V14.01,2013-03-14 12:22:00,
2013-03-14 05:27:00,56.4,40.0,30.01,NE,49,2.0,3.0,54,0.00,,---,0.00,VWS V14.01,2013-03-14 12:27:00,
2013-03-14 05:32:00,56.5,40.1,30.01,NE,50,1.0,3.0,54,0.00,,---,0.00,VWS V14.01,2013-03-14 12:32:00,
2013-03-14 05:37:00,56.6,40.2,30.01,NE,49,0.0,3.0,54,0.00,,---,0.00,VWS V14.01,2013-03-14 12:37:00,
2013-03-14 05:42:00,56.6,40.6,30.01,NE,50,0.0,3.0,55,0.00,,---,0.00,VWS V14.01,2013-03-14 12:42:00,
2013-03-14 05:47:00,56.7,40.7,30.02,NE,49,1.0,3.0,55,0.00,,---,0.00,VWS V14.01,2013-03-14 12:47:00,
2013-03-14 05:52:00,56.7,40.7,30.02,NE,49,2.0,3.0,55,0.00,,---,0.00,VWS V14.01,2013-03-14 12:52:00,
2013-03-14 05:57:00,56.6,40.6,30.02,NE,49,3.0,4.0,55,0.00,,---,0.00,VWS V14.01,2013-03-14 12:57:00,
2013-03-14 06:02:00,56.6,40.6,30.02,NE,49,3.0,5.0,55,0.00,,---,0.00,VWS V14.01,2013-03-14 13:02:00,
2013-03-14 06:08:00,56.6,40.2,30.02,NE,50,3.0,5.0,54,0.00,,---,0.00,VWS V14.01,2013-03-14 13:08:00,
2013-03-14 06:13:00,56.6,40.6,30.02,NE,50,3.0,5.0,55,0.00,,---,0.00,VWS V14.01,2013-03-14 13:13:00,
2013-03-14 06:18:00,56.7,40.7,30.02,NE,49,3.0,4.0,55,0.00,,---,0.00,VWS V14.01,2013-03-14 13:18:00,
2013-03-14 06:23:00,56.7,40.7,30.02,NE,49,3.0,4.0,55,0.00,,---,0.00,VWS V14.01,2013-03-14 13:23:00,
2013-03-14 06:28:00,56.7,40.7,30.02,NE,50,3.0,4.0,55,0.00,,---,0.00,VWS V14.01,2013-03-14 13:28:00,
2013-03-14 06:33:00,56.8,40.3,30.02,NE,49,3.0,4.0,54,0.00,,---,0.00,VWS V14.01,2013-03-14 13:33:00,
2013-03-14 06:38:00,56.8,40.3,30.02,NE,49,3.0,4.0,54,0.00,,---,0.00,VWS V14.01,2013-03-14 13:38:00,
2013-03-14 06:43:00,56.8,40.3,30.02,NE,49,3.0,4.0,54,0.00,,---,0.00,VWS V14.01,2013-03-14 13:43:00,
2013-03-14 06:48:00,56.9,40.0,30.02,NE,49,2.0,3.0,53,0.00,,---,0.00,VWS V14.01,2013-03-14 13:48:00,
2013-03-14 06:53:00,56.9,40.0,30.02,NE,49,3.0,3.0,53,0.00,,---,0.00,VWS V14.01,2013-03-14 13:53:00,
2013-03-14 06:58:00,56.9,39.5,30.02,NE,50,2.0,3.0,52,0.00,,---,0.00,VWS V14.01,2013-03-14 13:58:00,
2013-03-14 07:03:00,56.9,39.5,30.03,NE,49,1.0,1.0,52,0.00,,---,0.00,VWS V14.01,2013-03-14 14:03:00,
2013-03-14 07:08:00,56.9,40.0,30.03,NE,49,0.0,3.0,53,0.00,,---,0.00,VWS V14.01,2013-03-14 14:08:00,
2013-03-14 07:13:00,56.8,39.9,30.03,NE,49,0.0,3.0,53,0.00,,---,0.00,VWS V14.01,2013-03-14 14:13:00,
2013-03-14 07:18:00,56.8,39.4,30.03,NE,49,0.0,3.0,52,0.00,,---,0.00,VWS V14.01,2013-03-14 14:18:00,
2013-03-14 07:23:00,56.8,39.9,30.03,NE,50,0.0,3.0,53,0.00,,---,0.00,VWS V14.01,2013-03-14 14:23:00,
2013-03-14 07:28:00,56.8,40.8,30.03,NE,49,3.0,4.0,55,0.00,,---,0.00,VWS V14.01,2013-03-14 14:28:00,
2013-03-14 07:33:00,56.6,40.6,30.03,NE,50,2.0,4.0,55,0.00,,---,0.00,VWS V14.01,2013-03-14 14:33:00,
2013-03-14 07:38:00,56.7,40.3,30.04,NE,49,3.0,4.0,54,0.00,,---,0.00,VWS V14.01,2013-03-14 14:38:00,
2013-03-14 07:43:00,56.9,40.9,30.04,NE,49,0.0,4.0,55,0.00,,---,0.00,VWS V14.01,2013-03-14 14:43:00,
2013-03-14 07:48:00,57.3,40.8,30.04,NE,49,0.0,0.0,54,0.00,,---,0.00,VWS V14.01,2013-03-14 14:48:00,
2013-03-14 07:53:00,57.7,40.7,30.04,NE,49,0.0,0.0,53,0.00,,---,0.00,VWS V14.01,2013-03-14 14:53:00,
2013-03-14 07:58:00,58.1,41.6,30.04,NE,50,4.0,4.0,54,0.00,,---,0.00,VWS V14.01,2013-03-14 14:58:00,
2013-03-14 08:03:00,58.7,40.6,30.04,NE,51,4.0,5.0,51,0.00,,---,0.00,VWS V14.01,2013-03-14 15:03:00,
2013-03-14 08:08:00,59.2,40.1,30.04,NE,51,5.0,5.0,49,0.00,,---,0.00,VWS V14.01,2013-03-14 15:08:00,
2013-03-14 08:13:00,60.3,40.0,30.04,NE,51,0.0,6.0,47,0.00,,---,0.00,VWS V14.01,2013-03-14 15:13:00,
2013-03-14 08:18:00,61.3,40.4,30.04,NE,51,0.0,3.0,46,0.00,,---,0.00,VWS V14.01,2013-03-14 15:18:00,
2013-03-14 08:23:00,62.2,40.6,30.04,NE,51,0.0,3.0,45,0.00,,---,0.00,VWS V14.01,2013-03-14 15:23:00,
2013-03-14 08:28:00,63.0,41.3,30.04,NE,51,0.0,3.0,45,0.00,,---,0.00,VWS V14.01,2013-03-14 15:28:00,
2013-03-14 08:33:00,64.6,41.6,30.04,NE,49,2.0,3.0,43,0.00,,---,0.00,VWS V14.01,2013-03-14 15:33:00,
2013-03-14 08:38:00,66.1,42.4,30.04,NE,48,0.0,3.0,42,0.00,,---,0.00,VWS V14.01,2013-03-14 15:38:00,
2013-03-14 08:43:00,66.8,43.0,30.04,NE,49,0.0,3.0,42,0.00,,---,0.00,VWS V14.01,2013-03-14 15:43:00,
2013-03-14 08:48:00,67.3,42.8,30.04,NE,49,0.0,0.0,41,0.00,,---,0.00,VWS V14.01,2013-03-14 15:48:00,
2013-03-14 08:53:00,67.8,43.3,30.04,NE,49,0.0,0.0,41,0.00,,---,0.00,VWS V14.01,2013-03-14 15:53:00,
2013-03-14 08:58:00,68.3,43.1,30.04,NE,49,0.0,0.0,40,0.00,,---,0.00,VWS V14.01,2013-03-14 15:58:00,
2013-03-14 09:03:00,69.1,43.8,30.04,NE,48,0.0,0.0,40,0.00,,---,0.00,VWS V14.01,2013-03-14 16:03:00,
2013-03-14 09:08:00,69.9,43.8,30.04,NE,49,0.0,0.0,39,0.00,,---,0.00,VWS V14.01,2013-03-14 16:08:00,
2013-03-14 09:13:00,70.5,45.7,30.04,NE,49,0.0,1.0,41,0.00,,---,0.00,VWS V14.01,2013-03-14 16:13:00,
2013-03-14 09:18:00,71.3,45.8,30.04,NE,49,0.0,0.0,40,0.00,,---,0.00,VWS V14.01,2013-03-14 16:18:00,
2013-03-14 09:23:00,72.2,44.5,30.04,NE,49,0.0,0.0,37,0.00,,---,0.00,VWS V14.01,2013-03-14 16:23:00,
2013-03-14 09:28:00,73.3,47.5,30.04,NE,49,0.0,0.0,40,0.00,,---,0.00,VWS V14.01,2013-03-14 16:28:00,
2013-03-14 09:33:00,74.7,46.0,30.04,NE,49,0.0,0.0,36,0.00,,---,0.00,VWS V14.01,2013-03-14 16:33:00,
2013-03-14 09:38:00,76.7,44.7,30.04,NE,49,0.0,0.0,32,0.00,,---,0.00,VWS V14.01,2013-03-14 16:38:00,
2013-03-14 09:43:00,78.6,46.3,30.04,NE,49,0.0,0.0,32,0.00,,---,0.00,VWS V14.01,2013-03-14 16:43:00,
2013-03-14 09:48:00,80.4,47.0,30.03,NE,49,0.0,0.0,31,0.00,,---,0.00,VWS V14.01,2013-03-14 16:48:00,
2013-03-14 09:53:00,82.1,47.6,30.03,NE,49,0.0,0.0,30,0.00,,---,0.00,VWS V14.01,2013-03-14 16:53:00,
2013-03-14 09:58:00,82.9,47.4,30.03,NE,49,0.0,0.0,29,0.00,,---,0.00,VWS V14.01,2013-03-14 16:58:00,
2013-03-14 10:03:00,83.6,47.1,30.03,NE,49,0.0,0.0,28,0.00,,---,0.00,VWS V14.01,2013-03-14 17:03:00,
2013-03-14 10:08:00,83.7,48.1,30.03,NE,49,0.0,0.0,29,0.00,,---,0.00,VWS V14.01,2013-03-14 17:08:00,
2013-03-14 10:13:00,83.6,45.1,30.03,NE,49,0.0,0.0,26,0.00,,---,0.00,VWS V14.01,2013-03-14 17:13:00,
2013-03-14 10:18:00,83.2,47.7,30.03,NE,49,0.0,2.0,29,0.00,,---,0.00,VWS V14.01,2013-03-14 17:18:00,
2013-03-14 10:23:00,83.1,48.5,30.03,NE,48,0.0,2.0,30,0.00,,---,0.00,VWS V14.01,2013-03-14 17:23:00,
2013-03-14 10:28:00,83.2,44.8,30.03,NE,49,0.0,2.0,26,0.00,,---,0.00,VWS V14.01,2013-03-14 17:28:00,
2013-03-14 10:33:00,83.3,44.9,30.03,NE,49,0.0,1.0,26,0.00,,---,0.00,VWS V14.01,2013-03-14 17:33:00,
2013-03-14 10:38:00,83.8,47.2,30.03,NE,49,0.0,1.0,28,0.00,,---,0.00,VWS V14.01,2013-03-14 17:38:00,
2013-03-14 10:43:00,84.3,45.7,30.03,NE,50,0.0,1.0,26,0.00,,---,0.00,VWS V14.01,2013-03-14 17:43:00,
2013-03-14 10:48:00,84.8,48.1,30.03,NE,49,0.0,1.0,28,0.00,,---,0.00,VWS V14.01,2013-03-14 17:48:00,
2013-03-14 10:53:00,84.8,48.1,30.03,NE,49,0.0,2.0,28,0.00,,---,0.00,VWS V14.01,2013-03-14 17:53:00,
2013-03-14 10:58:00,84.9,48.2,30.03,NE,49,0.0,2.0,28,0.00,,---,0.00,VWS V14.01,2013-03-14 17:58:00,
2013-03-14 11:03:00,85.3,46.6,30.04,NE,49,0.0,1.0,26,0.00,,---,0.00,VWS V14.01,2013-03-14 18:03:00,
2013-03-14 11:08:00,85.9,48.1,30.03,NE,49,0.0,1.0,27,0.00,,---,0.00,VWS V14.01,2013-03-14 18:08:00,
2013-03-14 11:13:00,86.2,50.2,30.03,NE,49,0.0,1.0,29,0.00,,---,0.00,VWS V14.01,2013-03-14 18:13:00,
2013-03-14 11:18:00,86.5,49.6,30.03,NE,49,0.0,4.0,28,0.00,,---,0.00,VWS V14.01,2013-03-14 18:18:00,
2013-03-14 11:23:00,86.8,52.6,30.03,NE,48,1.0,4.0,31,0.00,,---,0.00,VWS V14.01,2013-03-14 18:23:00,
2013-03-14 11:28:00,86.4,52.2,30.03,WNW,290,2.0,4.0,31,0.00,,---,0.00,VWS V14.01,2013-03-14 18:28:00,
2013-03-14 11:33:00,86.2,51.2,30.03,WSW,252,0.0,1.0,30,0.00,,---,0.00,VWS V14.01,2013-03-14 18:33:00,
2013-03-14 11:38:00,86.2,52.9,30.02,WSW,252,0.0,3.0,32,0.00,,---,0.00,VWS V14.01,2013-03-14 18:38:00,
2013-03-14 11:43:00,86.6,54.9,30.02,WSW,237,4.0,4.0,34,0.00,,---,0.00,VWS V14.01,2013-03-14 18:43:00,
2013-03-14 11:48:00,86.7,54.2,30.02,SW,225,1.0,3.0,33,0.00,,---,0.00,VWS V14.01,2013-03-14 18:48:00,
2013-03-14 11:53:00,86.8,55.9,30.02,SW,225,1.0,5.0,35,0.00,,---,0.00,VWS V14.01,2013-03-14 18:53:00,
2013-03-14 11:58:00,86.6,54.9,30.02,WSW,252,0.0,5.0,34,0.00,,---,0.00,VWS V14.01,2013-03-14 18:58:00,
2013-03-14 12:03:00,86.6,54.9,30.02,SW,227,5.0,5.0,34,0.00,,---,0.00,VWS V14.01,2013-03-14 19:03:00,
2013-03-14 12:08:00,86.5,54.8,30.02,WSW,256,4.0,6.0,34,0.00,,---,0.00,VWS V14.01,2013-03-14 19:08:00,
2013-03-14 12:14:00,86.5,54.0,30.02,WSW,246,3.0,6.0,33,0.00,,---,0.00,VWS V14.01,2013-03-14 19:14:00,
2013-03-14 12:19:00,86.6,55.7,30.02,WSW,256,2.0,5.0,35,0.00,,---,0.00,VWS V14.01,2013-03-14 19:19:00,
2013-03-14 12:24:00,86.3,52.1,30.02,SW,234,5.0,7.0,31,0.00,,---,0.00,VWS V14.01,2013-03-14 19:24:00,
2013-03-14 12:29:00,86.0,56.0,30.02,SW,222,2.0,7.0,36,0.00,,---,0.00,VWS V14.01,2013-03-14 19:29:00,
2013-03-14 12:34:00,86.3,56.2,30.02,SW,236,5.0,6.0,36,0.00,,---,0.00,VWS V14.01,2013-03-14 19:34:00,
2013-03-14 12:39:00,85.8,55.8,30.02,West,266,3.0,7.0,36,0.00,,---,0.00,VWS V14.01,2013-03-14 19:39:00,
2013-03-14 12:44:00,85.5,57.0,30.01,West,265,5.0,7.0,38,0.00,,---,0.00,VWS V14.01,2013-03-14 19:44:00,
2013-03-14 12:49:00,85.2,56.0,30.01,WSW,251,0.0,4.0,37,0.00,,---,0.00,VWS V14.01,2013-03-14 19:49:00,
2013-03-14 12:54:00,85.5,54.0,30.01,WSW,242,2.0,5.0,34,0.00,,---,0.00,VWS V14.01,2013-03-14 19:54:00,
2013-03-14 12:59:00,85.6,53.2,30.01,WSW,239,0.0,5.0,33,0.00,,---,0.00,VWS V14.01,2013-03-14 19:59:00,
2013-03-14 13:04:00,85.9,55.1,30.01,WSW,238,3.0,6.0,35,0.00,,---,0.00,VWS V14.01,2013-03-14 20:04:00,
2013-03-14 13:09:00,85.9,52.7,30.00,West,262,2.0,8.0,32,0.00,,---,0.00,VWS V14.01,2013-03-14 20:09:00,
2013-03-14 13:14:00,85.4,54.7,30.00,West,265,3.0,8.0,35,0.00,,---,0.00,VWS V14.01,2013-03-14 20:14:00,
2013-03-14 13:19:00,85.3,53.8,30.00,WSW,248,2.0,5.0,34,0.00,,---,0.00,VWS V14.01,2013-03-14 20:19:00,
2013-03-14 13:24:00,86.0,55.2,30.00,WSW,249,5.0,5.0,35,0.00,,---,0.00,VWS V14.01,2013-03-14 20:24:00,
2013-03-14 13:29:00,86.6,54.1,30.00,West,265,1.0,5.0,33,0.00,,---,0.00,VWS V14.01,2013-03-14 20:29:00,
2013-03-14 13:34:00,87.1,55.4,29.99,SW,233,5.0,6.0,34,0.00,,---,0.00,VWS V14.01,2013-03-14 20:34:00,
2013-03-14 13:39:00,87.2,53.8,29.99,WSW,256,3.0,7.0,32,0.00,,---,0.00,VWS V14.01,2013-03-14 20:39:00,
2013-03-14 13:44:00,87.3,53.0,29.99,West,261,2.0,7.0,31,0.00,,---,0.00,VWS V14.01,2013-03-14 20:44:00,
2013-03-14 13:49:00,87.1,52.8,29.99,WSW,240,5.0,6.0,31,0.00,,---,0.00,VWS V14.01,2013-03-14 20:49:00,
2013-03-14 13:54:00,87.0,56.1,29.99,West,271,5.0,7.0,35,0.00,,---,0.00,VWS V14.01,2013-03-14 20:54:00,
2013-03-14 13:59:00,86.6,54.9,29.99,WSW,237,5.0,7.0,34,0.00,,---,0.00,VWS V14.01,2013-03-14 20:59:00,
2013-03-14 14:04:00,85.8,55.0,29.99,WSW,253,5.0,9.0,35,0.00,,---,0.00,VWS V14.01,2013-03-14 21:04:00,
2013-03-14 14:09:00,84.9,55.0,29.99,WNW,286,2.0,9.0,36,0.00,,---,0.00,VWS V14.01,2013-03-14 21:09:00,
2013-03-14 14:14:00,84.2,53.6,29.99,NW,321,3.0,9.0,35,0.00,,---,0.00,VWS V14.01,2013-03-14 21:14:00,
2013-03-14 14:19:00,83.4,55.9,29.99,West,271,4.0,6.0,39,0.00,,---,0.00,VWS V14.01,2013-03-14 21:19:00,
2013-03-14 14:24:00,83.6,53.8,29.99,SW,226,3.0,7.0,36,0.00,,---,0.00,VWS V14.01,2013-03-14 21:24:00,
2013-03-14 14:29:00,83.8,56.9,29.99,West,264,5.0,7.0,40,0.00,,---,0.00,VWS V14.01,2013-03-14 21:29:00,
2013-03-14 14:34:00,84.3,56.0,29.99,WSW,242,5.0,6.0,38,0.00,,---,0.00,VWS V14.01,2013-03-14 21:34:00,
2013-03-14 14:39:00,84.4,53.0,29.99,West,259,6.0,7.0,34,0.00,,---,0.00,VWS V14.01,2013-03-14 21:39:00,
2013-03-14 14:44:00,83.9,55.6,29.99,West,281,2.0,7.0,38,0.00,,---,0.00,VWS V14.01,2013-03-14 21:44:00,
2013-03-14 14:49:00,84.1,55.0,29.99,WSW,251,1.0,6.0,37,0.00,,---,0.00,VWS V14.01,2013-03-14 21:49:00,
2013-03-14 14:54:00,84.2,50.3,29.99,WSW,245,5.0,9.0,31,0.00,,---,0.00,VWS V14.01,2013-03-14 21:54:00,
2013-03-14 14:59:00,84.2,51.2,29.99,West,265,3.0,9.0,32,0.00,,---,0.00,VWS V14.01,2013-03-14 21:59:00,
2013-03-14 15:04:00,84.3,49.5,29.99,WSW,255,4.0,5.0,30,0.00,,---,0.00,VWS V14.01,2013-03-14 22:04:00,
2013-03-14 15:09:00,84.5,52.3,29.99,West,271,5.0,6.0,33,0.00,,---,0.00,VWS V14.01,2013-03-14 22:09:00,
2013-03-14 15:14:00,84.5,50.6,29.99,WSW,249,3.0,7.0,31,0.00,,---,0.00,VWS V14.01,2013-03-14 22:14:00,
2013-03-14 15:19:00,84.7,52.4,29.98,WSW,251,3.0,6.0,33,0.00,,---,0.00,VWS V14.01,2013-03-14 22:19:00,
2013-03-14 15:24:00,84.8,52.5,29.98,West,280,1.0,7.0,33,0.00,,---,0.00,VWS V14.01,2013-03-14 22:24:00,
2013-03-14 15:29:00,84.9,51.8,29.98,WSW,253,3.0,9.0,32,0.00,,---,0.00,VWS V14.01,2013-03-14 22:29:00,
2013-03-14 15:34:00,85.1,52.8,29.98,WSW,252,4.0,7.0,33,0.00,,---,0.00,VWS V14.01,2013-03-14 22:34:00,
2013-03-14 15:39:00,85.0,54.3,29.98,WSW,256,5.0,9.0,35,0.00,,---,0.00,VWS V14.01,2013-03-14 22:39:00,
2013-03-14 15:44:00,84.7,55.6,29.98,WNW,296,0.0,9.0,37,0.00,,---,0.00,VWS V14.01,2013-03-14 22:44:00,
2013-03-14 15:49:00,84.2,54.4,29.99,WNW,289,0.0,6.0,36,0.00,,---,0.00,VWS V14.01,2013-03-14 22:49:00,
2013-03-14 15:54:00,84.0,51.8,29.98,West,277,0.0,6.0,33,0.00,,---,0.00,VWS V14.01,2013-03-14 22:54:00,
2013-03-14 15:59:00,83.9,51.8,29.99,WSW,254,0.0,6.0,33,0.00,,---,0.00,VWS V14.01,2013-03-14 22:59:00,
2013-03-14 16:04:00,84.2,52.8,29.99,NW,305,2.0,5.0,34,0.00,,---,0.00,VWS V14.01,2013-03-14 23:04:00,
2013-03-14 16:09:00,84.1,49.3,29.98,WNW,300,5.0,9.0,30,0.00,,---,0.00,VWS V14.01,2013-03-14 23:09:00,
2013-03-14 16:14:00,83.6,49.8,29.98,West,259,4.0,9.0,31,0.00,,---,0.00,VWS V14.01,2013-03-14 23:14:00,
2013-03-14 16:19:00,83.8,50.8,29.98,WNW,289,0.0,4.0,32,0.00,,---,0.00,VWS V14.01,2013-03-14 23:19:00,
2013-03-14 16:24:00,83.9,48.3,29.98,WNW,287,1.0,6.0,29,0.00,,---,0.00,VWS V14.01,2013-03-14 23:24:00,
2013-03-14 16:29:00,84.1,49.3,29.98,WSW,237,2.0,6.0,30,0.00,,---,0.00,VWS V14.01,2013-03-14 23:29:00,
2013-03-14 16:34:00,84.5,50.6,29.98,WNW,298,0.0,3.0,31,0.00,,---,0.00,VWS V14.01,2013-03-14 23:34:00,
2013-03-14 16:39:00,84.8,47.1,29.98,West,281,2.0,5.0,27,0.00,,---,0.00,VWS V14.01,2013-03-14 23:39:00,
2013-03-14 16:44:00,84.7,45.0,29.98,West,265,0.0,6.0,25,0.00,,---,0.00,VWS V14.01,2013-03-14 23:44:00,
2013-03-14 16:50:00,84.4,48.7,29.98,WSW,248,2.0,4.0,29,0.00,,---,0.00,VWS V14.01,2013-03-14 23:50:00,
2013-03-14 16:55:00,84.2,50.3,29.97,West,273,1.0,6.0,31,0.00,,---,0.00,VWS V14.01,2013-03-14 23:55:00,
2013-03-14 17:00:00,83.9,51.8,29.97,SW,233,2.0,6.0,33,0.00,,---,0.00,VWS V14.01,2013-03-15 00:00:00,
2013-03-14 17:05:00,83.6,52.3,29.97,West,263,1.0,3.0,34,0.00,,---,0.00,VWS V14.01,2013-03-15 00:05:00,
2013-03-14 17:10:00,83.3,52.8,29.97,WSW,252,2.0,3.0,35,0.00,,---,0.00,VWS V14.01,2013-03-15 00:10:00,
2013-03-14 17:15:00,83.0,54.1,29.97,SW,233,0.0,4.0,37,0.00,,---,0.00,VWS V14.01,2013-03-15 00:15:00,
2013-03-14 17:20:00,82.5,54.4,29.97,SW,236,2.0,4.0,38,0.00,,---,0.00,VWS V14.01,2013-03-15 00:20:00,
2013-03-14 17:25:00,82.2,54.8,29.97,WSW,244,0.0,4.0,39,0.00,,---,0.00,VWS V14.01,2013-03-15 00:25:00,
2013-03-14 17:30:00,81.8,55.8,29.97,West,259,1.0,5.0,41,0.00,,---,0.00,VWS V14.01,2013-03-15 00:30:00,
2013-03-14 17:35:00,81.3,56.0,29.97,West,264,2.0,4.0,42,0.00,,---,0.00,VWS V14.01,2013-03-15 00:35:00,
2013-03-14 17:40:00,80.5,56.6,29.97,WNW,283,1.0,4.0,44,0.00,,---,0.00,VWS V14.01,2013-03-15 00:40:00,
2013-03-14 17:45:00,79.7,56.5,29.98,WNW,286,0.0,4.0,45,0.00,,---,0.00,VWS V14.01,2013-03-15 00:45:00,
2013-03-14 17:50:00,79.2,57.2,29.97,WSW,249,6.0,6.0,47,0.00,,---,0.00,VWS V14.01,2013-03-15 00:50:00,
2013-03-14 17:55:00,78.7,56.2,29.97,WSW,258,4.0,6.0,46,0.00,,---,0.00,VWS V14.01,2013-03-15 00:55:00,
2013-03-14 18:00:00,78.0,56.2,29.98,SW,236,3.0,7.0,47,0.00,,---,0.00,VWS V14.01,2013-03-15 01:00:00,
2013-03-14 18:05:00,77.2,56.0,29.98,WNW,287,1.0,5.0,48,0.00,,---,0.00,VWS V14.01,2013-03-15 01:05:00,
2013-03-14 18:10:00,76.5,55.9,29.98,West,268,4.0,5.0,49,0.00,,---,0.00,VWS V14.01,2013-03-15 01:10:00,
2013-03-14 18:15:00,76.1,55.6,29.98,West,277,2.0,5.0,49,0.00,,---,0.00,VWS V14.01,2013-03-15 01:15:00,
2013-03-14 18:20:00,75.8,55.9,29.98,West,275,0.0,3.0,50,0.00,,---,0.00,VWS V14.01,2013-03-15 01:20:00,
2013-03-14 18:25:00,75.6,54.5,29.98,WNW,286,0.0,3.0,48,0.00,,---,0.00,VWS V14.01,2013-03-15 01:25:00,
2013-03-14 18:30:00,75.5,55.0,29.98,WNW,286,0.0,3.0,49,0.00,,---,0.00,VWS V14.01,2013-03-15 01:30:00,
2013-03-14 18:35:00,75.2,55.3,29.98,WNW,286,0.0,0.0,50,0.00,,---,0.00,VWS V14.01,2013-03-15 01:35:00,
2013-03-14 18:40:00,74.8,55.5,29.98,WSW,243,0.0,4.0,51,0.00,,---,0.00,VWS V14.01,2013-03-15 01:40:00,
2013-03-14 18:45:00,74.3,55.6,29.99,WSW,258,2.0,4.0,52,0.00,,---,0.00,VWS V14.01,2013-03-15 01:45:00,
2013-03-14 18:50:00,73.6,56.0,29.98,West,259,0.0,2.0,54,0.00,,---,0.00,VWS V14.01,2013-03-15 01:50:00,
2013-03-14 18:55:00,73.0,55.4,29.99,West,260,0.0,3.0,54,0.00,,---,0.00,VWS V14.01,2013-03-15 01:55:00,
2013-03-14 19:00:00,72.3,55.2,29.99,West,261,1.0,3.0,55,0.00,,---,0.00,VWS V14.01,2013-03-15 02:00:00,
2013-03-14 19:05:00,71.5,55.0,29.99,West,261,0.0,2.0,56,0.00,,---,0.00,VWS V14.01,2013-03-15 02:05:00,
2013-03-14 19:10:00,71.0,55.0,29.99,West,260,0.0,2.0,57,0.00,,---,0.00,VWS V14.01,2013-03-15 02:10:00,
2013-03-14 19:15:00,70.5,54.5,29.99,West,260,0.0,2.0,57,0.00,,---,0.00,VWS V14.01,2013-03-15 02:15:00,
2013-03-14 19:20:00,70.0,54.6,29.99,West,261,0.0,0.0,58,0.00,,---,0.00,VWS V14.01,2013-03-15 02:20:00,
2013-03-14 19:25:00,69.7,54.8,29.99,West,261,0.0,0.0,59,0.00,,---,0.00,VWS V14.01,2013-03-15 02:25:00,
2013-03-14 19:30:00,69.4,54.5,29.99,West,260,0.0,0.0,59,0.00,,---,0.00,VWS V14.01,2013-03-15 02:30:00,
2013-03-14 19:35:00,69.2,54.7,30.00,West,261,0.0,0.0,60,0.00,,---,0.00,VWS V14.01,2013-03-15 02:35:00,
2013-03-14 19:40:00,69.0,55.5,30.00,West,261,0.0,0.0,62,0.00,,---,0.00,VWS V14.01,2013-03-15 02:40:00,
2013-03-14 19:45:00,68.7,55.2,30.00,West,261,0.0,0.0,62,0.00,,---,0.00,VWS V14.01,2013-03-15 02:45:00,
2013-03-14 19:50:00,68.4,54.9,30.00,West,260,0.0,0.0,62,0.00,,---,0.00,VWS V14.01,2013-03-15 02:50:00,
2013-03-14 19:55:00,68.1,54.6,30.00,West,261,0.0,0.0,62,0.00,,---,0.00,VWS V14.01,2013-03-15 02:55:00,
2013-03-14 20:00:00,67.9,54.4,30.00,West,261,0.0,0.0,62,0.00,,---,0.00,VWS V14.01,2013-03-15 03:00:00,
2013-03-14 20:05:00,67.8,54.8,29.99,West,260,0.0,0.0,63,0.00,,---,0.00,VWS V14.01,2013-03-15 03:05:00,
2013-03-14 20:10:00,67.7,54.2,29.99,West,261,0.0,0.0,62,0.00,,---,0.00,VWS V14.01,2013-03-15 03:10:00,
2013-03-14 20:15:00,67.6,54.1,29.99,West,261,0.0,0.0,62,0.00,,---,0.00,VWS V14.01,2013-03-15 03:15:00,
2013-03-14 20:20:00,67.7,54.7,29.99,WSW,253,0.0,0.0,63,0.00,,---,0.00,VWS V14.01,2013-03-15 03:20:00,
2013-03-14 20:25:00,67.8,54.3,29.99,WSW,253,0.0,0.0,62,0.00,,---,0.00,VWS V14.01,2013-03-15 03:25:00,
2013-03-14 20:30:00,67.8,54.3,29.99,WSW,253,0.0,0.0,62,0.00,,---,0.00,VWS V14.01,2013-03-15 03:30:00,
2013-03-14 20:35:00,67.7,54.2,29.99,WSW,253,0.0,0.0,62,0.00,,---,0.00,VWS V14.01,2013-03-15 03:35:00,
2013-03-14 20:40:00,67.5,54.0,29.99,WSW,253,0.0,0.0,62,0.00,,---,0.00,VWS V14.01,2013-03-15 03:40:00,
2013-03-14 20:45:00,67.2,53.8,29.99,WSW,253,0.0,0.0,62,0.00,,---,0.00,VWS V14.01,2013-03-15 03:45:00,
2013-03-14 20:50:00,66.8,53.4,29.99,WSW,253,0.0,0.0,62,0.00,,---,0.00,VWS V14.01,2013-03-15 03:50:00,
2013-03-14 20:55:00,66.5,52.7,29.99,WSW,253,0.0,0.0,61,0.00,,---,0.00,VWS V14.01,2013-03-15 03:55:00,
2013-03-14 21:00:00,66.2,53.2,30.00,WSW,253,0.0,0.0,63,0.00,,---,0.00,VWS V14.01,2013-03-15 04:00:00,
2013-03-14 21:05:00,66.1,52.7,29.98,WSW,254,0.0,0.0,62,0.00,,---,0.00,VWS V14.01,2013-03-15 04:05:00,
2013-03-14 21:10:00,65.8,52.0,29.98,WSW,254,0.0,0.0,61,0.00,,---,0.00,VWS V14.01,2013-03-15 04:10:00,
2013-03-14 21:15:00,65.6,50.9,29.99,WSW,254,0.0,0.0,59,0.00,,---,0.00,VWS V14.01,2013-03-15 04:15:00,
2013-03-14 21:20:00,65.3,48.2,29.99,NNE,13,3.0,3.0,54,0.00,,---,0.00,VWS V14.01,2013-03-15 04:20:00,
2013-03-14 21:25:00,65.0,46.5,29.99,NNE,27,0.0,4.0,51,0.00,,---,0.00,VWS V14.01,2013-03-15 04:25:00,
2013-03-14 21:30:00,64.8,44.7,29.99,NNE,26,1.0,2.0,48,0.00,,---,0.00,VWS V14.01,2013-03-15 04:30:00,
2013-03-14 21:35:00,64.5,43.8,29.99,NNE,28,0.0,3.0,47,0.00,,---,0.00,VWS V14.01,2013-03-15 04:35:00,
2013-03-14 21:40:00,64.3,46.3,30.00,NNE,17,0.0,3.0,52,0.00,,---,0.00,VWS V14.01,2013-03-15 04:40:00,
2013-03-14 21:45:00,63.7,44.7,30.00,WNW,302,0.0,0.0,50,0.00,,---,0.00,VWS V14.01,2013-03-15 04:45:00,
2013-03-14 21:50:00,63.7,48.7,30.00,WNW,302,0.0,3.0,58,0.00,,---,0.00,VWS V14.01,2013-03-15 04:50:00,
2013-03-14 21:55:00,63.9,50.6,30.00,WNW,302,0.0,3.0,62,0.00,,---,0.00,VWS V14.01,2013-03-15 04:55:00,
2013-03-14 22:00:00,64.0,50.7,30.00,WNW,302,0.0,0.0,62,0.00,,---,0.00,VWS V14.01,2013-03-15 05:00:00,
2013-03-14 22:05:00,63.8,50.1,30.00,WNW,302,0.0,0.0,61,0.00,,---,0.00,VWS V14.01,2013-03-15 05:05:00,
2013-03-14 22:10:00,63.6,49.9,30.00,WNW,302,0.0,0.0,61,0.00,,---,0.00,VWS V14.01,2013-03-15 05:10:00,
2013-03-14 22:15:00,63.3,49.6,30.00,WNW,302,0.0,0.0,61,0.00,,---,0.00,VWS V14.01,2013-03-15 05:15:00,
2013-03-14 22:20:00,63.0,49.4,30.00,WNW,302,0.0,0.0,61,0.00,,---,0.00,VWS V14.01,2013-03-15 05:20:00,
2013-03-14 22:26:00,62.8,49.2,30.00,WNW,302,0.0,0.0,61,0.00,,---,0.00,VWS V14.01,2013-03-15 05:26:00,
2013-03-14 22:31:00,62.5,48.4,30.00,WNW,302,0.0,0.0,60,0.00,,---,0.00,VWS V14.01,2013-03-15 05:31:00,
2013-03-14 22:36:00,62.3,48.2,30.00,WNW,302,0.0,0.0,60,0.00,,---,0.00,VWS V14.01,2013-03-15 05:36:00,
2013-03-14 22:41:00,62.1,47.2,30.00,WNW,302,0.0,0.0,58,0.00,,---,0.00,VWS V14.01,2013-03-15 05:41:00,
2013-03-14 22:46:00,61.8,45.0,29.99,NNE,28,3.0,3.0,54,0.00,,---,0.00,VWS V14.01,2013-03-15 05:46:00,
2013-03-14 22:51:00,61.6,44.8,29.99,NNE,28,0.0,3.0,54,0.00,,---,0.00,VWS V14.01,2013-03-15 05:51:00,
2013-03-14 22:56:00,61.4,44.1,30.00,NNE,28,0.0,3.0,53,0.00,,---,0.00,VWS V14.01,2013-03-15 05:56:00,
2013-03-14 23:01:00,61.3,44.0,29.99,NNE,28,0.0,0.0,53,0.00,,---,0.00,VWS V14.01,2013-03-15 06:01:00,
2013-03-14 23:06:00,61.2,44.0,29.99,NNE,28,0.0,0.0,53,0.00,,---,0.00,VWS V14.01,2013-03-15 06:06:00,
2013-03-14 23:11:00,61.2,43.5,29.99,NNE,28,2.0,3.0,52,0.00,,---,0.00,VWS V14.01,2013-03-15 06:11:00,
2013-03-14 23:16:00,61.1,42.8,29.99,NNE,28,0.0,0.0,51,0.00,,---,0.00,VWS V14.01,2013-03-15 06:16:00,
2013-03-14 23:22:00,60.9,42.2,29.99,NNE,28,0.0,2.0,50,0.00,,---,0.00,VWS V14.01,2013-03-15 06:22:00,
2013-03-14 23:27:00,61.0,41.7,29.99,NNE,28,0.0,3.0,49,0.00,,---,0.00,VWS V14.01,2013-03-15 06:27:00,
2013-03-14 23:32:00,61.1,42.3,29.99,NNE,28,0.0,0.0,50,0.00,,---,0.00,VWS V14.01,2013-03-15 06:32:00,
2013-03-14 23:37:00,60.9,44.6,30.00,WNW,285,0.0,6.0,55,0.00,,---,0.00,VWS V14.01,2013-03-15 06:37:00,
2013-03-14 23:42:00,60.4,47.8,30.00,West,260,0.0,6.0,63,0.00,,---,0.00,VWS V14.01,2013-03-15 06:42:00,
2013-03-14 23:47:00,59.7,48.7,30.00,West,259,0.0,0.0,67,0.00,,---,0.00,VWS V14.01,2013-03-15 06:47:00,
2013-03-14 23:52:00,59.0,48.9,29.99,West,259,0.0,0.0,69,0.00,,---,0.00,VWS V14.01,2013-03-15 06:52:00,
2013-03-14 23:57:00,58.8,49.0,29.99,West,259,0.0,0.0,70,0.00,,---,0.00,VWS V14.01,2013-03-15 06:57:00,